Location: Marcé
(47.5801°N, 0.3280°W)
Time: 22:30:22
(UTC+01:00)

Transit 2A - Pass Details

Date: 09 December 2021
Orbit: 591 x 967 km, 66.7° (Epoch: 16 January)

Event Time Altitude Azimuth Distance (km) Brightness Sun altitude
Rises 05:26:59 0° 320° (NW) 3,625 - -31.1°
Reaches altitude 10° 05:30:40 10° 341° (NNW) 2,706 - -30.4°
Exits shadow 05:32:37 14° 358° (N) 2,399 8.5 -30.1°
Maximum altitude 05:34:30 16° 18° (NNE) 2,291 8.6 -29.8°
Drops below altitude 10° 05:38:20 10° 55° (NE) 2,704 9.4 -29.1°
Sets 05:42:01 0° 76° (ENE) 3,620 10.6 -28.5°
